GFSCGP_sfc_thetae_150.txt.gz
Theta_e
302 297 293 295 298 297 295 294 294 296 300 297 294 293 296 299 297 295 294 297 302 313 319 322 323 324 324 324 323 325 325 326 326 325 324 323 323 323 322 323 323 322 321 320
297 291 296 298 299 297 293 292 292 296 300 300 298 292 296 299 297 299 299 297 299 304 313 316 320 323 324 324 323 324 325 326 326 326 326 325 325 322 325 324 324 324 322 321
291 293 299 298 296 294 293 292 293 293 297 300 297 295 296 299 299 300 302 300 300 302 305 311 317 320 323 323 324 323 324 324 327 327 326 320 320 319 320 322 323 324 324 322
295 299 296 295 294 294 290 297 296 295 293 289 296 287 297 300 300 299 302 298 300 300 303 310 315 318 320 322 325 325 324 324 324 326 324 323 322 321 323 324 324 324 323 322
290 294 294 294 293 296 292 298 296 296 293 293 291 285 291 295 297 298 301 303 302 300 302 307 313 317 320 322 323 325 324 324 325 324 325 324 323 323 323 320 321 323 322 323
292 294 298 297 298 298 298 297 295 293 291 283 289 288 289 294 298 298 301 303 303 302 300 306 312 316 318 320 322 323 323 324 325 325 325 324 323 323 320 320 320 322 323 323
290 291 296 297 293 296 296 292 284 281 280 282 290 288 290 295 293 301 301 302 303 301 299 303 308 311 314 316 319 322 322 322 325 325 325 325 324 323 321 320 321 321 322 323
283 281 290 296 295 293 293 292 285 279 279 282 282 283 290 298 302 294 296 298 299 297 299 300 305 311 313 315 318 320 321 322 323 325 325 326 325 325 324 323 323 323 323 323
284 284 292 295 297 297 293 289 295 284 279 279 282 283 288 290 290 292 293 293 294 294 296 297 298 308 312 314 316 318 319 321 322 323 325 326 326 325 324 323 323 323 323 322
289 284 290 293 296 295 292 297 286 285 279 277 281 278 285 286 291 290 290 291 292 291 292 294 294 300 308 313 316 318 319 320 322 322 324 325 325 325 326 324 321 323 322 320
293 289 287 291 289 288 287 289 288 287 284 283 276 281 287 293 290 291 290 290 290 290 291 292 293 294 299 301 306 312 314 315 315 318 321 322 323 324 324 323 323 323 323 325
294 290 283 285 291 294 293 290 289 285 281 281 281 284 287 287 289 289 290 290 289 290 291 291 292 294 295 296 297 304 306 308 310 312 313 318 317 319 322 322 322 324 323 320
295 288 281 282 284 287 289 290 292 290 285 282 280 281 286 286 287 288 289 288 290 291 291 292 294 295 296 297 297 298 299 300 301 305 307 309 310 310 312 312 313 316 316 316
297 289 285 280 283 287 284 288 291 290 283 281 282 283 285 286 286 287 289 288 289 291 293 293 294 295 297 298 299 300 301 302 301 302 303 304 304 305 305 305 306 308 309 308
295 286 288 288 288 288 287 288 289 288 288 285 287 283 286 288 288 288 289 289 290 291 292 293 294 294 296 297 298 299 300 301 300 300 300 300 300 299 299 298 298 298 299 301
295 285 287 285 288 287 286 289 290 291 290 290 287 287 290 288 287 286 288 290 290 291 292 293 294 294 295 297 298 299 299 299 299 298 298 297 297 295 295 294 292 292 293 294
286 285 283 282 287 285 281 287 289 290 293 292 287 289 289 285 287 288 289 291 292 293 293 293 294 295 295 296 297 297 297 296 297 296 294 293 292 292 293 292 293 293 293 293
285 284 284 282 283 276 286 292 293 292 292 295 293 291 290 289 291 291 292 291 290 291 292 293 293 293 293 294 295 295 294 294 293 291 291 290 292 293 292 291 292 291 291 292
290 286 282 278 280 281 283 286 289 288 289 294 292 292 291 290 290 290 290 289 291 290 291 290 291 291 290 290 291 290 289 289 289 289 289 289 288 289 288 287 288 290 288 289
289 289 284 280 278 277 284 287 294 292 284 293 294 294 290 290 287 291 290 290 289 289 289 288 288 287 287 286 287 288 287 287 287 287 288 288 286 288 288 287 287 286 286 286
284 285 281 281 279 281 287 286 293 282 284 295 294 294 294 291 294 290 289 287 286 286 285 284 284 283 283 284 285 284 284 283 283 284 285 287 287 286 286 286 285 285 285 285
283 282 282 281 276 279 287 289 287 292 287 290 294 295 295 290 288 288 287 285 284 283 282 282 281 280 280 282 284 282 281 282 283 284 284 285 286 285 285 286 285 286 286 285
282 286 283 285 284 287 289 287 290 289 289 288 290 293 295 288 285 286 284 284 282 281 281 280 279 278 277 278 281 280 280 282 283 284 284 285 285 285 285 286 285 285 285 285
287 288 285 284 286 285 287 288 288 289 288 287 287 287 290 286 285 283 282 282 280 280 278 278 277 276 274 273 274 275 276 277 278 281 282 282 283 283 284 284 285 285 284 284
284 286 284 283 284 285 286 287 287 285 285 284 284 285 287 285 283 283 280 279 279 278 277 276 275 273 272 272 271 271 273 275 276 276 276 277 279 281 282 281 283 283 283 285
277 281 285 286 281 283 284 284 285 284 283 283 284 282 283 284 281 280 279 278 277 275 274 273 272 271 269 269 269 268 269 272 275 275 275 274 274 273 274 274 275 284 285 286

GFSCGP_sfc_thetae_153.txt.gz
Theta_e
302 297 292 295 298 297 293 291 290 293 298 297 296 296 297 300 296 295 296 295 298 310 318 320 322 323 325 324 325 325 325 327 326 324 322 322 322 322 321 321 321 321 320 319
295 291 294 298 299 296 295 291 290 293 297 296 295 296 300 302 300 297 299 298 298 298 309 316 320 320 322 323 323 325 325 325 326 326 325 325 324 323 324 323 322 321 320 319
290 291 295 295 293 293 293 291 291 291 294 296 293 293 297 301 304 304 301 301 302 300 300 309 317 319 321 322 322 323 325 325 325 327 326 319 320 317 320 321 322 322 321 320
291 295 293 292 292 294 288 294 294 293 291 286 293 286 295 298 301 303 305 300 301 302 300 303 312 317 320 321 323 323 325 325 325 325 324 323 322 320 322 323 323 323 323 321
287 291 291 290 292 294 291 295 293 292 291 291 291 287 291 295 295 299 303 304 303 303 305 303 306 315 320 322 323 323 323 324 325 325 325 323 321 322 323 323 321 322 322 323
290 293 296 293 296 296 296 293 293 294 291 284 289 289 288 292 296 299 300 303 304 306 306 305 305 312 317 321 322 323 322 322 323 324 325 323 322 322 320 320 319 320 321 321
287 291 293 295 293 297 295 291 282 281 280 282 289 288 290 295 299 301 300 302 303 305 307 302 302 307 313 317 319 322 321 321 322 322 323 323 323 322 321 319 320 319 320 321
281 275 290 294 293 290 292 291 283 277 278 281 285 284 289 297 301 303 301 299 301 303 304 303 302 306 311 315 318 321 321 321 322 322 322 323 323 323 322 321 321 321 321 322
279 280 289 292 294 294 288 287 292 285 281 280 282 283 290 294 293 298 300 298 293 296 300 300 300 305 310 314 316 319 320 321 322 322 323 323 323 323 323 322 321 321 321 321
285 280 287 290 293 294 293 294 285 286 278 277 280 282 285 286 293 296 295 296 300 293 294 296 298 302 308 313 316 318 320 320 321 322 323 324 324 324 324 323 321 322 321 320
287 285 282 290 289 287 289 288 290 290 286 280 279 283 293 293 291 294 298 298 296 298 294 294 295 298 306 311 313 316 318 319 320 320 322 323 323 324 324 325 323 321 320 320
289 285 279 283 291 294 293 290 290 284 282 284 284 285 288 291 297 297 297 296 292 291 291 290 291 292 296 303 307 313 315 316 318 319 319 321 321 321 323 324 324 321 320 319
291 285 280 283 286 289 289 291 291 290 286 284 281 284 289 285 285 288 290 291 289 290 289 289 291 292 292 297 303 308 310 312 309 311 314 312 312 316 319 321 322 318 320 322
295 287 285 280 281 286 285 288 291 290 285 285 285 288 292 287 286 287 288 289 289 290 291 290 291 293 294 295 296 299 301 302 303 305 307 307 307 309 310 310 310 312 314 314
293 284 287 287 287 288 287 287 289 287 288 285 288 289 292 295 291 289 289 289 289 290 291 291 292 293 295 296 296 297 298 299 299 300 301 302 302 302 303 304 303 301 300 301
292 279 283 282 287 288 286 288 289 290 289 290 290 290 292 293 288 288 288 288 289 291 291 292 293 293 294 296 296 297 298 298 299 298 298 297 297 295 294 294 292 293 294 296
283 281 281 279 284 284 282 286 287 289 292 291 287 292 295 291 288 287 288 288 290 291 292 292 293 294 294 296 297 297 297 296 297 295 294 293 292 292 292 292 293 292 292 292
282 281 281 276 279 273 284 292 291 290 291 293 294 296 297 298 296 292 291 290 291 291 292 292 293 294 295 295 296 296 295 295 293 291 291 290 291 290 290 291 291 291 291 292
288 284 280 274 276 280 283 286 289 288 288 294 294 296 298 300 298 299 297 291 292 292 291 292 292 291 291 292 292 291 290 290 289 289 289 290 291 289 289 288 291 290 290 289
288 288 282 274 276 273 282 288 293 294 284 295 296 296 297 297 288 293 298 290 289 289 289 289 288 288 288 287 288 288 287 287 287 287 288 288 288 290 289 288 287 285 286 286
281 283 279 279 278 279 285 288 294 283 285 296 298 298 298 290 296 298 289 288 288 287 286 286 286 285 285 286 286 285 284 284 284 285 286 287 287 287 288 286 285 286 286 286
281 280 279 280 277 276 286 289 287 291 292 293 297 299 297 300 298 289 288 286 285 285 284 283 282 281 281 283 284 282 282 283 284 285 285 286 286 285 286 286 285 286 286 286
280 284 280 283 281 287 287 287 294 289 290 289 293 297 298 297 296 287 286 284 283 282 281 280 279 278 278 281 282 282 281 283 284 285 285 285 285 285 286 286 285 285 286 285
283 286 285 284 286 288 287 289 289 288 288 288 287 288 292 291 287 284 284 282 281 280 279 278 278 276 275 276 277 278 280 281 284 283 283 284 284 284 285 285 285 285 285 284
283 285 284 284 286 285 286 286 285 286 285 286 285 285 287 286 284 284 282 280 279 278 277 277 276 274 273 273 273 274 276 280 281 280 279 280 281 282 281 282 283 283 283 285
282 284 285 284 280 283 285 282 282 283 282 283 284 284 284 285 283 281 280 278 277 275 274 273 272 271 270 271 270 270 271 274 276 275 275 274 275 275 275 277 278 286 286 286

GFSCGP_sfc_thetae_156.txt.gz
Theta_e
302 296 292 295 297 295 291 288 286 292 297 295 295 296 298 299 300 297 297 299 296 305 315 318 321 323 323 323 323 324 324 324 323 321 320 320 320 321 320 321 322 320 320 318
297 291 295 298 298 296 295 292 289 292 296 295 293 294 298 299 300 302 303 299 300 297 301 311 317 320 322 322 323 324 324 325 324 324 323 322 322 322 322 322 322 321 320 318
289 289 296 295 293 292 292 291 291 291 293 294 292 291 293 297 302 303 305 302 301 300 300 301 313 317 319 322 322 323 324 325 326 326 324 319 320 317 320 321 320 319 320 319
291 294 291 290 291 293 288 292 292 291 289 283 290 281 289 291 296 300 303 304 303 301 301 303 303 315 318 320 323 323 324 325 325 326 324 322 322 321 323 324 324 321 320 319
285 289 289 288 289 293 289 293 291 290 288 287 286 284 284 290 290 295 301 303 305 305 304 305 302 307 317 320 321 323 323 324 325 325 326 324 322 324 324 323 321 321 321 320
287 292 292 290 293 294 294 290 291 292 290 282 285 285 284 287 290 293 299 302 303 306 304 305 307 304 310 318 320 321 322 323 324 324 324 323 323 322 322 319 320 321 322 321
287 289 291 295 291 292 293 289 278 279 279 277 284 285 286 290 293 294 296 300 302 304 306 306 305 303 306 313 318 320 320 320 323 323 323 324 323 322 320 320 320 319 321 321
282 274 289 293 292 290 290 289 280 271 272 277 282 283 288 295 298 300 300 301 302 301 304 305 306 305 304 309 316 319 319 319 321 322 323 324 324 323 322 321 321 321 321 321
278 278 287 290 292 293 288 287 291 283 278 279 281 284 290 295 296 295 295 298 300 302 302 303 305 303 304 307 314 318 319 320 320 321 322 322 323 322 322 322 321 321 321 320
283 278 285 288 293 293 290 291 284 286 276 275 278 279 282 288 290 292 293 296 299 302 303 302 302 302 303 306 313 317 319 319 320 321 321 321 322 322 323 322 320 321 320 318
286 282 281 288 286 285 288 286 288 287 283 276 274 278 289 290 293 294 296 297 299 300 302 302 300 299 301 306 312 315 318 318 319 320 321 320 321 322 322 322 321 320 319 319
288 283 273 281 286 290 290 287 286 281 279 284 282 282 294 292 290 292 294 296 298 297 299 297 296 295 297 304 310 313 316 317 319 320 320 320 321 321 322 322 323 322 321 318
288 282 271 275 281 285 286 288 289 288 286 281 279 281 294 292 291 293 293 294 294 291 291 292 290 292 295 303 308 311 314 316 317 318 319 319 320 321 322 322 323 323 321 318
292 285 279 274 277 284 284 286 288 287 282 282 283 284 290 292 291 295 298 295 288 290 291 291 290 292 292 298 305 309 312 314 313 315 316 316 317 318 320 321 320 319 319 319
290 279 284 285 285 285 286 286 286 285 287 283 285 286 290 292 294 295 298 299 293 291 290 290 290 292 293 293 296 301 303 303 307 311 311 311 306 306 308 309 309 306 307 308
290 276 283 281 283 284 282 285 287 287 287 288 288 287 294 296 293 288 288 287 288 290 289 291 292 292 293 294 294 296 299 300 303 304 303 300 300 301 301 300 297 296 296 298
285 282 277 272 280 279 273 280 283 286 289 288 285 290 294 293 294 296 297 294 289 290 290 291 292 294 294 295 296 296 296 296 296 296 295 294 293 293 292 292 292 292 293 294
282 276 273 269 270 265 279 288 288 286 289 291 291 292 294 295 297 298 298 292 295 291 291 291 293 294 294 295 295 295 295 294 293 291 290 290 292 291 291 291 291 290 291 291
284 278 268 269 266 276 280 281 283 283 283 290 291 293 295 296 296 296 301 300 299 293 291 292 293 294 293 294 294 292 291 290 290 289 290 290 291 290 289 289 290 290 290 290
285 285 277 264 272 262 278 283 288 288 280 292 293 293 293 295 290 294 301 303 296 290 291 290 290 289 290 289 289 290 289 289 288 287 289 290 289 290 290 288 288 286 286 287
280 280 277 277 275 274 283 287 289 279 281 292 294 295 295 293 296 300 299 299 291 289 288 287 287 286 286 286 287 287 286 286 286 286 287 288 289 289 288 287 286 286 287 287
278 276 277 278 275 273 286 285 284 288 289 290 292 295 295 296 298 298 292 288 287 286 285 285 284 282 283 285 286 285 283 284 285 286 287 287 287 286 287 287 286 286 287 286
275 281 276 280 279 285 285 287 290 288 286 286 285 289 290 292 296 292 290 286 285 283 282 282 281 279 279 281 284 283 282 284 285 286 285 286 286 286 286 286 286 286 286 286
281 284 282 282 286 287 289 290 287 286 285 286 286 286 287 287 289 293 286 284 281 280 279 279 279 278 276 278 280 281 282 284 286 285 284 285 285 285 285 285 286 286 285 285
282 283 282 285 287 286 289 287 283 282 283 284 284 285 285 286 285 285 283 283 281 279 278 278 277 276 274 275 276 278 281 285 283 282 282 282 283 283 283 283 284 284 285 286
282 284 283 283 283 281 284 282 281 280 281 281 282 283 284 284 283 281 280 280 279 277 276 275 274 273 273 273 273 275 279 281 280 279 279 279 280 280 281 283 282 286 286 286

GFSCGP_sfc_thetae_159.txt.gz
Theta_e
303 297 292 295 296 294 292 290 289 292 296 295 294 295 297 301 302 300 302 301 301 300 307 314 321 324 324 324 325 325 324 325 324 323 322 322 321 323 323 323 324 324 323 323
295 291 294 296 298 296 294 292 290 292 295 295 293 292 296 298 300 302 302 303 304 304 301 307 315 321 323 324 324 325 325 325 324 324 323 323 323 324 324 324 323 323 323 322
287 288 295 294 293 292 291 291 291 290 293 294 291 289 292 295 300 301 303 304 305 305 304 304 305 315 321 323 323 324 325 325 325 325 324 323 323 321 322 322 322 322 322 322
291 295 291 291 291 291 287 292 292 291 289 283 290 280 287 289 292 297 300 302 304 305 305 307 307 306 317 321 325 325 325 326 326 326 324 322 321 320 322 323 324 323 322 322
286 288 288 288 291 294 290 292 290 289 287 286 285 282 283 288 287 290 295 300 303 305 306 304 304 307 309 318 321 324 325 325 326 326 326 323 322 324 325 324 324 323 322 323
286 291 291 290 292 294 293 290 290 289 287 280 283 283 283 285 288 288 292 297 301 303 305 307 308 308 307 312 318 322 323 324 325 326 325 324 323 323 323 323 323 323 323 321
285 287 291 294 288 292 292 286 273 278 277 276 284 282 285 289 290 292 292 295 298 300 302 305 306 307 307 305 313 318 321 321 324 325 325 325 324 324 324 324 323 322 321 322
281 279 288 293 290 286 288 288 277 269 273 276 283 280 285 291 295 296 298 299 300 300 302 303 306 308 308 306 307 316 318 320 322 324 324 325 326 325 325 325 324 323 323 323
281 281 287 290 292 292 287 284 289 279 276 276 281 284 290 293 293 294 295 297 297 299 302 303 304 306 307 306 306 312 316 319 321 322 323 324 325 325 324 325 324 323 324 323
282 278 284 288 291 292 290 291 283 284 274 271 278 280 281 287 290 293 292 293 295 297 299 301 302 304 305 306 307 309 315 317 319 321 323 323 323 324 325 325 322 323 323 323
285 281 282 287 286 284 286 285 285 285 282 275 273 278 286 289 291 290 291 293 294 296 298 299 300 302 303 304 305 306 311 316 318 320 321 322 323 323 324 323 323 322 322 321
286 283 275 280 288 289 288 286 286 280 276 280 280 280 292 291 292 293 294 296 298 298 297 294 295 297 298 299 301 304 309 314 318 319 320 320 322 322 322 322 322 322 321 320
287 280 268 273 278 283 284 287 288 287 284 279 276 279 291 291 291 293 291 292 295 298 292 294 294 294 295 296 298 302 308 314 317 319 319 319 320 320 321 321 322 320 321 319
292 281 279 274 276 280 280 285 287 285 281 280 281 282 287 290 291 293 294 296 297 298 299 299 293 293 292 292 295 301 308 313 316 318 318 318 319 319 320 321 321 321 321 319
288 275 281 282 281 283 284 285 285 284 285 281 283 284 288 291 292 293 296 296 296 297 298 295 290 291 292 292 293 301 308 312 315 316 317 317 319 319 320 319 318 318 317 317
289 282 281 277 283 284 282 283 285 286 286 285 286 285 292 294 295 294 295 295 295 296 296 297 293 292 292 292 293 296 303 306 310 314 315 315 312 312 314 311 309 307 306 307
287 284 278 271 280 279 271 281 282 283 285 286 282 287 291 291 292 293 295 296 296 297 298 299 298 292 293 293 295 295 299 301 306 309 304 304 304 303 302 300 299 297 297 297
286 284 282 270 271 269 280 282 284 283 285 287 288 289 291 292 295 296 296 296 297 298 298 295 292 293 293 294 295 295 295 297 297 295 295 294 296 294 293 294 294 292 293 294
284 280 276 271 264 273 279 279 281 282 282 287 287 289 291 293 294 293 297 298 298 299 300 297 293 292 294 295 295 294 291 291 291 291 291 291 293 292 292 291 291 291 292 291
284 283 273 266 261 263 276 280 283 283 276 286 287 287 289 291 287 292 299 297 297 296 293 292 291 291 292 291 291 291 289 289 289 289 289 290 291 291 291 290 289 287 290 288
272 276 275 265 264 270 280 283 286 273 278 286 288 290 291 288 292 295 297 297 293 289 289 289 289 289 287 287 289 288 288 287 287 287 288 289 290 289 290 288 289 288 288 288
275 273 271 269 267 270 283 283 281 285 286 286 288 288 288 289 289 291 293 296 290 288 286 286 286 284 284 286 287 286 285 285 286 288 288 288 288 288 288 288 287 287 288 287
275 279 274 278 277 283 284 286 288 287 287 288 286 289 287 287 288 289 289 292 288 285 283 282 282 280 280 283 286 284 283 284 286 287 286 286 286 287 287 287 287 287 287 287
279 281 279 279 281 282 285 287 287 285 285 284 284 284 284 284 286 286 287 288 284 282 281 280 280 279 278 280 282 282 283 284 286 286 286 286 286 286 286 287 287 287 286 286
279 282 280 280 283 283 286 286 284 282 281 282 282 282 282 283 284 285 285 284 282 280 279 280 279 277 276 278 280 282 284 286 285 285 284 285 285 285 284 285 285 285 285 287
281 282 281 279 284 285 285 283 281 280 281 280 279 280 281 281 282 283 282 281 280 279 278 277 276 275 274 276 277 280 284 285 284 282 283 283 284 284 283 283 283 287 287 287

GFSCGP_sfc_thetae_165.txt.gz
Theta_e
305 298 294 297 300 300 298 296 295 299 303 300 300 300 303 307 308 307 309 310 312 313 317 319 321 322 326 329 330 330 331 333 333 331 329 328 326 328 329 331 331 330 330 329
299 293 300 301 301 299 298 295 293 297 301 300 298 296 300 302 303 306 307 308 309 311 313 316 318 321 321 323 328 329 330 331 332 333 332 330 329 329 330 330 330 330 329 329
294 296 301 299 297 295 295 294 294 293 297 299 296 293 295 299 302 304 305 307 308 309 310 312 314 314 318 319 324 327 330 331 332 333 333 332 331 330 328 328 328 329 329 329
295 299 295 297 295 296 291 298 296 294 293 287 295 284 293 296 297 299 301 303 305 307 309 310 311 312 314 318 320 324 327 330 331 333 332 330 328 326 327 327 328 328 329 328
292 294 293 292 293 297 293 297 295 293 291 290 290 287 291 296 294 296 300 301 303 305 307 308 309 311 313 318 319 321 322 326 331 332 332 330 329 330 330 329 328 328 328 328
295 298 297 295 296 297 298 295 293 293 291 283 288 287 287 291 294 297 299 301 303 304 306 308 310 311 312 317 320 321 319 320 325 330 331 331 329 329 328 328 327 327 327 327
292 292 296 297 293 297 295 290 283 281 281 280 289 286 289 294 297 297 298 300 303 304 305 306 308 310 312 314 317 318 318 317 319 323 328 330 330 329 328 328 328 326 326 326
284 281 290 296 293 291 292 290 283 277 279 282 289 283 288 297 299 300 301 301 304 304 305 306 307 309 310 312 314 314 315 316 317 317 321 326 330 330 329 329 328 328 327 327
284 283 293 294 295 294 290 287 292 285 284 281 285 289 294 297 297 299 300 301 302 302 303 304 306 307 307 308 310 312 313 314 315 316 316 319 324 328 328 329 329 328 329 328
289 283 290 292 295 295 292 294 285 287 277 276 282 284 286 292 294 297 297 298 300 301 302 303 304 306 307 309 310 311 312 311 312 313 315 315 318 323 327 328 327 328 329 329
291 287 285 291 288 288 288 287 289 288 285 279 278 282 293 293 295 295 297 298 300 300 300 302 304 306 307 308 309 309 309 309 310 311 312 313 314 317 322 326 327 328 328 329
292 288 282 285 292 294 292 289 289 283 281 284 283 283 295 296 296 297 297 297 299 300 301 303 304 305 306 307 308 309 309 309 310 308 308 309 310 313 317 322 325 327 327 328
292 286 281 282 287 290 288 291 291 290 289 283 281 283 295 296 296 296 296 298 299 300 301 303 304 304 304 306 307 308 308 309 309 307 307 307 307 309 312 318 323 325 326 326
295 288 284 280 283 287 284 288 291 290 283 284 285 286 291 293 294 295 297 298 299 300 301 302 301 303 304 305 306 307 307 308 307 306 307 306 306 308 310 316 321 323 324 324
292 284 286 287 288 287 287 286 287 287 288 284 286 287 290 293 294 295 297 298 299 300 299 300 301 303 304 305 306 307 307 307 307 307 306 305 307 309 311 315 320 322 321 322
293 285 287 284 288 288 285 286 287 288 288 288 288 288 294 295 296 296 297 298 298 297 298 300 302 302 303 304 306 307 307 307 308 307 305 305 306 309 312 316 318 319 319 319
289 286 283 279 284 284 280 284 286 287 289 288 284 289 294 294 295 296 297 297 296 297 299 301 301 301 303 304 307 307 307 307 306 304 304 303 306 309 312 315 313 311 315 316
287 285 285 280 281 273 284 290 290 287 288 290 291 292 294 295 297 298 299 296 296 299 299 299 300 301 302 303 305 305 305 304 303 301 301 302 303 306 309 306 307 308 310 311
292 286 282 278 278 283 285 287 286 286 286 291 290 292 294 295 297 296 297 299 299 299 299 300 301 300 300 300 301 301 299 299 298 297 297 297 298 298 300 300 304 302 298 298
290 289 284 281 276 274 284 288 292 292 281 291 293 292 293 295 287 291 299 299 298 299 299 298 298 298 297 298 297 294 294 296 296 295 294 294 294 294 298 298 294 288 293 291
282 283 280 280 279 283 290 288 292 279 283 292 292 293 293 290 293 297 298 296 297 297 297 297 296 294 293 294 291 291 293 293 294 290 288 288 289 289 290 288 288 288 289 289
282 281 280 281 279 276 291 288 284 289 294 294 293 293 294 296 296 295 295 294 294 294 294 292 291 290 290 291 288 288 289 292 288 287 287 287 287 286 286 287 288 288 288 288
281 286 284 285 284 292 292 291 293 295 293 294 294 296 295 293 292 293 292 292 291 290 289 289 288 287 288 288 286 285 288 287 286 286 286 286 286 286 286 287 289 289 289 288
287 291 286 285 289 291 291 293 294 294 293 295 295 293 292 290 290 288 288 288 287 288 287 287 286 285 285 287 285 285 286 286 286 286 286 286 286 286 286 287 287 287 288 287
289 288 286 286 289 290 292 292 293 292 293 290 289 289 289 288 286 286 285 285 285 285 285 285 283 283 283 285 284 285 285 286 285 285 284 285 285 285 285 285 286 287 287 288
286 286 284 284 289 289 290 292 293 292 290 289 287 286 286 284 283 284 283 284 283 282 283 281 281 282 282 282 282 283 285 285 285 284 284 285 285 285 284 285 284 288 288 288

GFSCGP_sfc_thetae_171.txt.gz
Theta_e
300 294 291 294 296 293 293 290 288 292 297 297 296 296 298 301 299 297 297 301 304 306 310 309 310 315 317 318 322 324 323 323 324 323 321 321 321 322 321 323 324 323 325 324
293 289 295 298 298 296 293 290 289 293 296 293 292 291 296 298 299 300 300 300 301 303 305 307 307 308 312 317 319 322 325 325 324 325 324 323 323 322 323 324 323 324 324 324
290 293 298 297 294 293 292 290 290 290 293 292 289 288 290 295 298 300 301 301 301 301 303 305 306 305 306 308 312 319 323 325 326 326 325 323 321 319 319 321 322 323 324 324
292 297 295 294 293 294 289 294 294 292 288 282 288 277 286 290 291 292 295 297 299 300 300 302 302 301 303 304 307 311 315 321 325 327 325 324 322 320 322 322 323 324 324 324
287 291 292 291 293 296 291 295 292 291 287 284 284 279 282 288 287 291 293 294 296 297 298 299 300 302 304 305 306 308 309 311 317 323 326 325 324 325 325 324 322 322 324 324
289 293 293 292 295 296 296 292 291 289 285 275 283 281 278 283 287 291 292 293 295 296 297 299 300 302 303 305 306 307 308 309 311 311 319 322 324 325 324 324 323 323 323 324
286 289 292 294 290 292 293 286 274 273 272 274 282 281 281 287 290 290 292 294 295 297 297 299 298 300 301 301 302 304 305 307 309 310 310 314 321 324 324 325 325 324 323 322
280 276 288 292 290 287 289 287 279 271 272 275 280 277 283 290 291 293 293 297 298 298 298 298 298 298 297 298 299 299 300 302 305 307 308 309 311 320 324 325 325 326 325 325
282 282 290 293 293 292 287 284 288 280 271 273 278 281 287 290 291 290 293 295 295 296 295 296 296 296 296 297 298 299 300 301 302 304 306 308 309 310 313 320 324 325 326 326
286 280 288 290 293 292 290 292 282 279 267 266 274 276 279 284 288 291 292 292 292 293 294 294 295 295 296 297 298 299 300 300 301 302 303 305 305 305 307 309 311 318 324 326
288 284 282 288 286 286 287 285 286 286 280 274 272 275 283 287 288 289 290 292 292 293 293 293 293 295 297 296 296 297 298 299 301 302 302 302 303 304 306 307 309 311 314 318
290 285 277 282 289 291 290 286 286 279 276 279 278 278 288 288 289 290 290 292 292 292 292 291 295 295 294 295 297 298 299 299 301 301 302 302 303 304 303 305 305 305 306 308
290 284 273 278 285 287 286 288 288 287 284 280 275 277 290 288 289 290 290 289 292 290 291 294 294 294 293 295 296 297 298 299 300 302 302 302 302 302 302 302 302 303 304 305
294 285 282 277 279 285 282 286 287 285 280 280 280 282 285 287 289 289 288 289 290 290 293 293 293 292 294 296 296 296 297 298 300 301 302 302 302 302 302 302 302 303 304 303
290 282 284 285 283 285 284 284 286 284 284 280 283 283 287 290 291 291 291 290 289 291 292 292 291 292 294 295 295 297 298 299 299 299 300 301 302 302 302 302 301 302 302 303
291 277 285 281 285 283 281 284 285 286 286 285 285 284 291 291 291 289 290 291 290 291 292 292 292 293 294 295 295 296 297 297 298 297 297 299 299 299 299 299 299 300 300 301
288 282 276 278 283 282 278 281 284 285 287 287 283 287 292 291 291 292 292 291 291 291 291 291 294 293 294 294 295 294 295 296 295 295 296 295 295 295 295 296 296 296 297 299
286 284 281 274 275 273 283 289 287 285 287 289 289 290 292 292 293 294 293 292 291 292 292 293 293 293 293 293 292 293 292 292 292 292 291 291 291 292 292 291 291 293 294 295
290 286 282 278 277 277 280 283 285 284 284 289 288 290 291 293 290 291 293 294 293 292 293 293 293 293 292 291 291 289 288 288 287 287 287 288 287 289 290 291 291 292 293 293
289 289 283 279 275 273 282 285 288 288 279 289 290 290 290 291 284 288 292 292 292 293 292 292 291 290 289 288 287 285 285 285 285 286 287 287 289 289 289 290 290 291 291 291
282 283 280 279 277 277 283 286 287 275 278 289 289 289 290 288 290 289 292 291 291 291 291 290 288 287 286 285 284 283 283 283 285 285 286 287 288 288 289 289 289 288 288 289
281 281 280 281 278 274 286 283 281 287 290 287 287 290 289 290 290 290 290 289 289 289 288 285 284 284 284 284 282 282 282 284 284 284 285 286 287 288 288 287 287 288 288 287
279 284 282 283 282 287 287 289 288 289 288 287 286 286 288 288 288 289 288 288 287 286 285 284 282 282 282 282 281 281 282 282 282 283 284 285 287 287 287 286 286 286 288 287
283 286 280 282 284 286 289 288 289 288 287 288 288 289 289 288 288 287 286 285 285 284 283 280 278 278 278 277 279 278 279 280 279 281 283 285 286 286 286 286 286 286 286 287
283 284 282 282 284 285 288 288 289 288 286 287 287 288 289 288 286 286 283 281 282 282 280 278 277 278 277 275 274 272 276 277 277 279 281 284 286 285 285 285 285 286 286 286
285 284 282 281 287 288 289 289 288 287 286 287 287 286 285 286 284 283 279 280 278 277 276 275 275 274 274 272 273 272 271 272 274 276 279 283 285 285 283 283 284 288 289 289

GFSCGP_sfc_thetae_174.txt.gz
Theta_e
300 294 290 294 296 292 292 289 287 290 295 293 293 294 297 301 298 298 298 299 301 303 307 307 308 309 313 317 320 319 320 322 323 321 319 319 320 321 320 322 323 323 324 324
293 289 294 297 298 295 292 289 288 291 294 291 289 289 293 296 296 298 299 300 300 301 301 304 306 307 310 314 319 321 321 321 323 323 322 322 322 322 323 323 322 323 323 324
287 290 296 296 294 293 292 290 289 289 291 290 287 285 288 293 295 297 299 300 300 300 300 302 303 304 304 306 310 318 321 321 322 323 322 320 319 317 318 319 320 322 323 324
292 295 294 293 292 293 288 293 293 291 288 282 287 276 285 288 289 291 293 293 297 298 298 300 302 301 301 303 305 309 316 321 323 322 321 321 320 318 320 321 322 322 323 323
287 290 290 290 292 295 291 295 292 290 286 284 283 281 283 286 287 291 294 294 291 295 297 297 298 299 299 303 305 306 308 310 319 322 322 321 320 322 322 320 319 320 322 323
288 292 293 292 295 296 295 291 289 288 285 276 283 282 279 283 287 288 291 291 294 293 295 297 299 301 302 302 303 304 304 305 308 310 319 321 321 321 321 321 320 321 321 322
285 288 291 293 290 293 291 286 273 272 273 275 281 281 281 286 288 289 291 291 292 295 296 296 298 298 298 298 299 299 299 300 301 303 306 310 317 321 322 323 323 322 321 321
278 276 287 292 290 288 289 288 279 271 271 274 280 277 282 288 291 291 292 294 295 296 296 297 296 295 296 296 296 297 298 299 300 301 302 304 306 311 318 322 324 324 324 324
281 281 288 291 292 292 287 285 288 279 269 273 277 280 286 289 290 289 291 294 294 295 295 295 294 295 295 295 296 297 298 298 299 300 300 301 302 304 307 312 318 322 324 325
286 280 287 290 292 291 289 292 282 278 267 266 274 276 279 282 287 289 290 291 292 292 293 294 293 294 295 295 296 296 297 298 299 300 300 301 301 302 303 304 306 308 310 312
287 283 282 288 285 286 286 285 286 285 280 273 270 274 282 286 287 289 290 291 291 291 291 291 292 294 295 295 295 296 297 298 298 299 300 300 301 302 302 302 303 304 306 308
288 284 278 282 287 290 290 285 286 278 275 278 278 278 287 287 287 289 290 291 291 290 290 290 292 294 294 294 295 296 296 297 298 299 299 300 301 301 301 301 302 303 304 306
290 283 273 278 283 285 285 288 289 286 283 279 275 278 287 287 287 289 289 289 290 289 289 291 292 293 292 293 295 296 296 297 298 298 299 299 300 300 301 301 302 302 301 301
294 283 282 277 280 284 282 286 287 287 280 279 280 281 284 285 287 288 288 289 289 290 291 292 292 292 292 294 294 294 295 296 297 297 297 298 299 300 300 301 301 301 302 301
290 280 283 285 282 285 284 284 286 283 285 281 283 282 287 288 287 286 288 289 289 289 290 291 291 291 292 293 293 294 294 295 295 295 295 295 297 298 298 298 298 299 299 299
289 278 283 277 284 282 281 285 286 286 286 285 285 284 291 292 291 291 292 292 289 289 290 291 290 291 293 294 293 293 293 293 293 292 292 294 293 293 293 294 295 295 295 296
287 281 276 278 283 281 277 281 284 285 287 286 282 287 291 290 290 290 291 290 290 292 291 291 290 292 292 293 293 292 292 292 291 290 291 291 290 290 290 291 291 291 293 295
285 284 282 280 277 273 283 288 286 285 286 288 288 288 290 292 293 294 294 291 292 291 291 291 290 291 292 292 291 291 290 289 288 287 288 287 287 287 287 289 290 291 292 293
289 286 282 278 277 279 279 284 284 283 283 288 288 290 291 293 291 292 293 294 294 292 293 292 292 292 291 290 289 288 286 285 284 284 284 285 285 285 287 287 288 290 291 291
288 289 284 280 276 274 283 286 289 289 280 288 289 289 290 289 285 289 293 294 292 293 291 291 291 290 289 287 286 284 283 282 282 283 284 284 284 285 286 287 288 289 289 289
282 283 280 281 278 275 284 286 288 277 281 291 291 291 291 288 291 293 289 289 290 290 290 290 288 287 286 284 283 283 282 281 283 283 283 283 284 285 286 287 288 288 288 288
281 280 279 280 278 274 285 282 281 287 289 287 290 291 291 291 292 292 290 289 289 289 288 287 285 284 284 284 283 282 281 282 281 281 281 281 283 285 286 286 287 287 287 286
279 284 282 282 282 286 286 287 288 288 288 289 289 286 289 289 287 288 289 288 287 286 285 284 282 281 282 281 280 279 280 280 280 279 278 279 281 285 286 286 286 286 286 286
282 285 284 282 285 289 291 293 293 289 288 288 288 288 286 287 286 286 286 285 285 284 283 280 278 278 277 276 277 276 277 278 275 274 276 279 281 283 285 286 286 285 285 285
283 284 281 280 284 284 286 290 292 290 286 286 286 286 287 286 286 286 285 284 284 282 280 278 277 276 274 274 273 273 274 273 272 273 275 277 279 282 284 286 286 286 286 286
281 280 280 279 285 286 287 288 287 287 285 286 286 286 287 286 285 284 280 280 278 277 275 274 273 272 271 270 270 271 269 269 268 270 272 274 276 278 282 284 285 288 288 289

GFSCGP_sfc_thetae_180.txt.gz
Theta_e
299 293 289 294 295 288 287 287 285 288 292 290 289 290 293 295 294 297 299 301 301 301 305 304 304 305 307 313 318 319 317 319 321 324 323 321 322 322 323 324 325 323 324 323
290 287 292 296 297 291 289 285 285 289 292 291 289 288 291 294 293 295 296 297 298 301 303 301 302 303 305 307 311 317 319 318 321 322 323 322 323 324 324 323 322 322 323 323
284 285 294 294 293 291 288 286 286 286 290 288 284 281 285 289 290 293 295 297 298 299 299 300 299 299 300 302 305 312 317 318 320 322 319 317 317 315 316 317 319 320 322 322
289 292 291 290 289 291 286 292 293 290 286 279 284 274 282 287 288 289 290 290 293 294 296 298 298 297 297 300 301 304 315 316 318 319 318 317 318 315 315 316 318 319 320 320
283 288 288 287 288 293 287 293 292 290 284 281 279 278 281 285 286 288 289 290 289 290 292 294 295 297 297 299 303 306 313 316 317 318 319 317 315 316 317 317 317 317 317 319
284 289 290 290 292 294 292 288 287 284 282 274 280 279 277 282 285 286 286 288 290 290 289 290 293 295 297 301 300 302 303 304 314 315 316 316 315 315 315 315 315 316 316 316
282 285 288 291 289 291 289 285 275 276 276 273 278 279 280 286 289 288 289 289 289 292 290 294 296 297 297 296 295 297 297 297 299 303 308 313 314 315 315 315 315 315 315 314
277 275 285 289 289 287 286 286 278 271 273 274 280 276 281 288 288 288 289 289 291 291 293 294 293 293 293 294 294 295 296 296 297 298 298 299 301 302 303 306 310 314 315 317
278 278 286 288 290 291 287 283 286 278 268 272 276 279 284 287 287 287 288 289 290 293 294 292 291 292 292 294 294 295 295 296 297 297 297 298 298 298 298 299 301 306 310 315
283 279 284 287 289 289 288 290 282 278 268 267 274 275 279 282 285 286 287 287 289 291 293 291 291 292 292 293 294 294 295 296 296 297 297 298 298 298 299 300 300 300 301 302
285 282 280 286 284 284 285 282 284 284 280 273 270 274 280 283 284 284 286 288 290 291 291 290 291 292 293 293 293 294 295 295 296 296 296 296 297 298 298 299 299 299 300 300
289 285 280 279 284 287 289 285 285 280 275 277 277 278 284 284 285 285 287 288 290 290 290 289 290 291 292 292 293 294 295 295 295 296 296 296 296 296 296 297 297 298 298 299
289 284 278 280 282 284 284 286 288 283 281 278 274 279 285 284 285 285 285 286 289 290 288 288 288 291 291 291 292 293 294 295 295 295 295 294 294 294 294 295 295 296 296 296
293 284 281 277 278 282 281 285 286 286 278 281 280 282 281 283 285 285 285 286 287 288 287 288 289 291 291 291 291 293 293 294 295 294 294 293 292 293 293 293 293 293 294 294
290 282 283 284 282 282 283 284 285 284 285 281 283 283 286 288 288 286 286 286 285 288 288 288 289 290 291 291 290 292 293 294 294 293 292 291 292 292 291 290 290 290 291 291
289 282 283 281 285 283 282 284 285 286 286 285 286 284 290 288 287 286 288 288 287 287 288 289 289 290 290 290 290 292 292 292 292 291 290 290 289 288 288 287 287 287 288 290
287 285 282 279 283 283 278 282 283 285 287 286 282 287 292 288 288 290 291 289 288 289 289 288 289 291 292 290 291 292 292 291 290 288 287 287 286 285 285 285 285 285 286 288
284 285 283 280 279 273 283 287 287 285 286 288 289 288 289 290 292 293 292 290 290 292 293 291 291 291 291 291 289 290 290 288 286 285 285 284 284 284 283 283 283 283 285 288
287 284 281 278 277 280 280 282 284 283 283 289 288 290 291 292 291 290 291 292 294 294 294 294 295 291 291 289 289 288 286 285 284 284 284 283 282 282 282 281 282 282 284 286
287 287 282 279 275 272 282 287 287 287 280 288 290 290 290 289 284 288 293 294 293 293 294 293 292 289 288 288 288 286 284 283 283 283 283 282 282 281 280 281 281 282 282 285
280 282 279 279 277 280 283 283 287 278 281 290 289 290 289 287 290 293 290 289 290 290 291 290 288 288 288 286 286 285 283 283 283 282 281 281 281 280 280 280 281 281 282 284
277 278 279 280 278 275 286 284 282 287 288 287 287 289 289 291 291 290 291 290 288 288 288 288 286 285 283 284 284 282 282 282 281 280 279 278 278 279 280 278 279 280 282 284
276 282 280 281 280 287 286 286 288 287 287 287 286 287 288 287 287 287 288 289 290 287 286 285 284 282 281 281 281 281 280 279 278 276 273 274 276 278 279 277 278 279 280 283
281 284 281 281 285 287 289 289 289 289 288 290 289 287 287 287 286 285 285 286 286 284 285 280 280 280 277 275 277 277 276 276 270 268 271 274 274 275 276 278 278 278 279 281
279 282 282 280 283 284 286 288 290 288 289 288 288 286 287 286 287 286 286 284 285 283 281 279 281 278 275 273 273 270 272 271 269 269 271 271 272 271 273 275 276 277 279 281
280 280 279 279 284 284 286 287 287 287 287 287 286 285 284 284 285 285 283 280 278 277 274 275 274 274 270 270 269 267 266 267 265 267 269 269 269 268 270 271 272 277 280 282

GFSCGP_sfc_thetae_183.txt.gz
Theta_e
298 292 289 295 294 289 289 288 287 289 293 291 290 291 294 295 295 296 298 300 301 303 307 306 307 307 307 313 320 320 319 321 324 327 326 325 324 326 326 328 328 327 327 326
289 286 292 297 295 293 289 287 286 289 292 291 289 288 292 294 294 296 297 297 299 301 302 304 304 305 306 308 312 319 320 320 322 325 326 326 326 327 327 328 327 327 326 326
283 285 293 294 293 292 290 287 287 287 290 288 285 282 284 288 291 293 295 298 299 299 300 301 302 303 304 305 307 311 318 320 320 323 324 321 322 320 322 323 324 324 326 326
287 290 290 290 288 290 285 292 292 290 287 279 286 275 284 287 288 289 291 291 292 293 295 298 299 299 300 302 303 304 311 318 320 322 321 321 321 320 320 321 323 322 323 324
282 288 288 287 289 291 286 293 292 290 286 283 282 280 282 285 286 289 289 291 291 291 291 292 294 297 299 300 301 304 306 315 318 321 321 320 320 321 320 320 320 321 321 322
283 289 290 289 290 293 292 288 287 286 284 275 281 279 278 282 286 286 289 289 291 290 293 292 292 294 296 302 304 309 312 314 316 318 318 319 319 318 318 318 319 319 320 320
281 286 288 292 289 290 289 284 275 274 275 274 279 279 280 285 288 288 289 291 291 290 293 295 296 296 299 300 299 300 301 302 311 316 317 317 318 318 318 318 319 318 319 319
276 275 285 289 289 286 286 284 277 270 272 274 280 277 282 287 289 289 289 289 290 291 294 296 297 297 297 296 297 298 298 298 299 301 301 304 306 307 309 310 311 313 315 317
277 278 285 288 290 291 286 283 285 278 269 273 276 279 284 286 287 289 288 289 290 292 295 294 294 294 294 295 296 297 297 298 299 299 300 300 301 302 302 303 304 306 308 310
282 278 283 286 288 288 288 289 280 278 269 269 275 276 280 283 286 287 287 286 290 293 294 292 292 293 294 295 296 296 297 298 298 299 299 299 300 300 301 302 302 302 303 303
285 282 280 285 283 282 284 282 284 283 279 274 271 276 282 284 285 285 286 287 289 292 293 291 291 292 293 294 294 296 296 297 298 298 298 298 299 299 300 300 300 300 301 301
288 285 278 279 284 286 286 284 284 278 275 277 276 279 284 284 286 286 287 287 288 291 292 290 291 292 293 293 294 295 296 296 297 297 297 298 298 298 298 298 298 298 298 299
289 284 275 277 282 283 283 285 287 282 281 278 275 279 286 284 285 285 286 287 288 289 290 290 289 290 292 292 293 294 295 296 296 296 296 296 295 295 295 295 295 296 296 296
293 284 280 276 277 282 281 283 286 285 278 281 280 283 281 284 285 284 285 287 287 288 289 289 288 289 291 291 292 293 294 295 295 295 295 294 293 294 294 293 293 293 293 293
289 282 282 284 281 282 283 283 284 283 285 281 283 283 286 287 287 287 288 288 287 288 287 288 288 290 291 291 291 291 293 294 295 294 293 292 292 293 292 291 291 291 291 291
290 282 282 276 283 282 281 283 284 285 285 285 286 285 292 289 287 288 288 288 288 287 288 288 289 289 290 291 291 291 292 293 293 292 291 290 290 289 289 289 288 288 288 289
285 284 282 278 282 281 278 282 283 284 286 286 282 288 292 289 288 289 292 288 288 289 289 289 290 291 291 291 293 291 292 292 292 291 289 288 288 287 287 286 286 285 286 288
280 277 279 277 274 272 281 285 287 285 287 288 289 289 288 291 293 293 292 290 289 290 291 291 292 291 291 291 290 291 291 291 291 288 287 286 286 286 285 285 285 284 285 286
285 281 276 275 275 279 279 282 282 283 284 289 287 289 291 292 289 289 291 292 293 294 293 294 295 292 291 290 290 289 288 289 288 286 285 285 285 284 284 283 283 284 284 285
284 284 279 277 274 269 280 286 286 286 279 288 289 289 289 290 283 289 294 293 293 292 294 292 291 290 290 290 288 287 287 286 286 286 285 285 284 283 283 283 282 283 283 284
277 279 276 277 275 278 283 284 286 277 280 289 288 290 290 288 290 291 290 289 290 291 292 291 289 289 289 288 287 286 285 285 286 284 283 283 282 282 282 281 282 282 282 283
273 272 273 269 273 271 284 283 280 285 288 286 287 290 290 289 290 290 289 289 288 289 289 288 288 287 287 286 285 285 284 284 282 282 281 280 280 280 281 279 280 280 281 280
274 279 276 278 277 285 288 288 291 290 290 291 286 288 288 287 286 287 288 287 288 288 287 286 286 286 284 283 283 283 282 281 279 277 276 275 277 278 279 277 278 278 279 279
279 282 280 281 283 286 288 289 291 291 291 290 288 287 287 286 286 286 285 285 285 284 285 281 281 281 280 276 277 278 278 278 274 272 273 274 274 275 276 277 278 277 277 277
278 279 279 281 283 284 285 287 290 290 289 288 287 287 287 286 286 285 284 283 283 282 280 278 280 280 277 274 273 272 273 272 271 271 272 273 273 272 273 274 275 276 277 278
283 280 280 279 283 283 284 284 287 287 287 288 287 285 285 285 284 283 281 279 275 276 274 274 273 273 271 271 269 267 267 268 268 270 270 270 270 270 270 271 271 276 278 279

GFSCGP_sfc_thetae_189.txt.gz
Theta_e
303 296 292 297 300 299 296 298 297 300 300 298 300 300 303 307 307 307 307 308 309 310 313 316 317 320 324 329 330 330 330 330 332 334 334 329 327 329 329 330 330 331 331 329
296 290 295 298 299 298 295 293 293 297 297 296 296 296 300 301 302 304 304 306 308 310 312 314 316 317 318 318 319 322 326 328 330 332 334 335 331 332 330 330 330 332 334 332
290 291 296 296 297 295 295 292 293 291 295 296 293 291 293 297 299 300 301 303 304 304 306 308 310 313 315 317 319 319 320 322 325 329 330 333 334 333 331 332 331 330 333 334
290 295 292 293 293 295 289 295 295 293 291 288 293 285 291 293 294 296 298 300 301 302 304 305 307 307 309 313 317 318 320 321 325 327 326 328 328 326 329 331 332 333 333 333
288 290 291 290 291 295 289 294 294 293 290 289 290 286 291 294 291 294 297 300 301 302 302 302 304 305 307 309 313 315 316 318 323 327 326 326 327 328 329 330 330 331 332 332
292 296 294 292 294 295 297 294 293 292 289 282 286 287 288 293 292 295 297 297 299 302 303 303 304 306 303 307 309 312 311 311 316 318 322 324 325 325 326 327 326 327 329 329
288 290 293 296 291 295 294 289 282 281 281 279 287 285 288 293 295 296 296 297 300 301 301 302 303 307 305 304 309 311 312 311 312 315 318 321 324 325 326 326 325 326 326 326
284 282 290 295 292 289 290 288 283 277 279 282 285 282 288 296 297 297 298 299 298 299 301 302 305 306 306 308 311 313 316 316 318 319 321 324 325 325 325 326 326 326 327 324
286 286 293 294 296 294 289 286 290 283 281 281 285 289 292 296 296 297 296 295 296 298 301 303 304 305 306 307 308 310 313 317 321 322 323 323 324 323 321 317 315 313 314 314
290 284 289 292 294 295 292 294 284 285 278 277 283 285 286 291 293 296 294 296 297 298 301 303 303 304 304 305 305 307 307 308 309 310 310 309 309 310 310 311 310 311 310 309
292 288 285 290 288 288 288 288 289 289 285 279 277 282 292 293 295 295 296 295 297 297 300 302 301 302 303 304 304 305 306 306 306 308 307 307 307 308 308 308 308 307 307 306
293 289 284 285 291 293 292 289 289 283 281 284 283 283 292 294 294 295 295 295 297 298 301 303 301 301 302 303 303 304 305 306 307 306 306 306 306 306 306 305 305 305 305 305
293 286 281 282 287 290 287 290 291 290 289 283 281 283 293 293 293 295 295 296 297 298 300 302 302 300 301 302 303 303 304 305 306 305 305 305 304 304 304 303 303 302 302 301
295 288 284 280 283 288 284 287 289 288 283 284 285 287 291 293 293 296 297 295 297 297 298 299 301 303 301 301 302 302 303 304 305 304 304 304 304 303 303 302 301 300 299 299
292 283 287 288 288 288 287 287 288 286 287 283 286 287 291 293 295 297 298 298 297 297 298 301 301 302 302 301 301 302 302 303 304 303 303 303 303 303 301 300 299 299 298 297
292 284 286 283 287 288 285 288 288 287 287 288 288 288 295 297 297 297 297 298 298 298 300 300 300 300 299 300 300 301 301 302 303 302 302 302 302 300 299 299 298 297 296 296
288 285 283 278 284 284 280 284 286 287 289 288 284 290 295 294 294 296 297 298 298 299 301 300 301 302 302 301 300 299 301 302 301 301 301 301 300 298 298 297 295 294 294 294
285 284 283 279 279 272 284 290 290 287 289 291 291 293 294 295 296 298 299 298 299 300 300 301 301 302 303 303 302 301 302 301 300 300 300 299 298 297 295 294 293 293 293 291
289 285 280 276 277 280 282 286 286 285 285 291 291 293 294 296 296 296 299 300 300 301 302 302 303 303 303 303 303 301 300 299 298 297 297 297 296 294 293 292 291 292 291 290
287 286 281 279 273 272 282 288 291 290 280 291 291 291 292 294 289 292 299 300 300 302 302 302 303 303 302 301 301 298 295 295 295 295 295 296 295 294 293 292 290 289 289 288
278 279 276 278 276 279 286 288 291 278 281 291 292 292 292 291 293 296 298 298 299 300 300 301 300 299 299 296 295 293 294 294 294 293 292 292 292 290 292 290 288 287 287 285
278 276 276 277 274 272 289 288 282 287 291 291 291 294 294 295 296 296 297 297 297 297 298 297 294 293 293 293 292 291 291 293 292 291 290 288 287 287 287 286 285 285 285 284
277 282 280 281 280 289 290 289 292 293 291 292 293 294 295 294 294 295 296 296 296 295 292 291 291 290 290 290 289 288 289 289 288 286 284 285 284 284 285 285 284 284 284 284
283 286 281 282 285 286 289 290 290 291 290 292 292 293 293 293 294 292 292 291 291 291 290 288 286 286 287 286 284 284 284 284 283 284 282 282 282 283 283 283 284 284 284 284
284 284 282 282 284 286 288 289 290 291 292 292 293 293 294 294 293 292 291 289 290 288 285 284 284 284 283 282 281 279 279 280 282 281 281 282 282 282 282 282 282 282 283 283
285 282 280 279 285 285 286 290 292 291 291 293 292 291 291 291 292 292 288 286 283 283 281 281 281 280 280 278 276 274 274 278 280 280 280 280 280 280 279 279 279 280 280 280